Location: Antioch Baptist Church
(32.6696°N, 85.7327°W)
Time: 20:24:14
(UTC+00:00)

Cosmos 1242 Rocket - Pass Details

Date: 14 July 2020
Orbit: 448 x 487 km, 81.2° (Epoch: 13 August)

Event Time Altitude Azimuth Distance (km) Brightness Sun altitude
Rises 09:36:33 0° 334° (NNW) 2,460 6.3 -13.2°
Reaches altitude 10° 09:38:58 10° 318° (NW) 1,587 5.1 -12.8°
Maximum altitude 09:41:35 20° 268° (W) 1,095 3.9 -12.4°
Enters shadow 09:42:17 19° 251° (WSW) 1,138 3.8 -12.3°
